[[{"header":{"parameterUnit":"m.s-1","parameterCategory":1,"la1":30.2991,"la2":30.254,"lo1":-89.0895,"lo2":-89.0444,"dy":0.0017,"dx":0.0017,"nx":28,"ny":28,"refTime":"2023-10-14T21:00:00:Z","depth":0,"parameterNumber":2,"parameterNumberName":"U-component_of_WINDS"},"data":[0,0,0,0,0,0,0,0,0,0,0,0,0,0,0,0,0,0,0,0,0,0,0,0,0,0,0,0,0,0,0,0,0,0,0,0,0,0,0,0,0,0,0,0,0,0,0,0,0,0,0,0,0,0,0,0,0,0,3.088,3.088,0,3.0903,3.0903,3.0904,3.0836,3.0834,3.0832,3.083,3.0852,3.0855,3.0857,0,0,0,0,0,0,0,0,0,0,0,0,0,3.0779,3.0781,3.088,3.0881,3.0881,3.0903,3.0903,3.0904,3.0836,3.0834,3.0831,3.0829,3.0851,3.0854,3.0857,0,0,0,0,0,0,0,0,0,0,0,0,0,3.0814,3.0782,3.088,3.085,3.0847,3.0903,3.0903,3.0904,3.0837,3.0833,3.083,3.0827,3.085,3.0854,3.0858,3.0944,0,0,3.0869,3.0871,0,0,0,0,0,0,0,0,3.0812,3.0818,3.0854,3.0852,3.0849,3.0863,3.0876,3.0917,3.0837,3.0841,3.083,3.0826,3.0858,3.0861,3.0872,3.0945,3.0946,3.087,3.0872,3.0874,3.0875,0,0,0,0,0,0,0,3.081,3.0817,3.0889,3.0855,3.0852,3.0835,3.0837,3.0883,3.0867,3.084,3.0835,3.0839,3.0856,3.0869,3.0872,3.0946,3.087,3.0873,3.0875,3.0877,3.1092,3.1096,0,0,0,0,0,0,3.0812,3.0815,3.0888,3.089,3.0823,3.084,3.0841,3.0862,3.0866,3.0864,3.0842,3.0836,3.0864,3.0868,3.0873,3.0975,3.0874,3.0877,3.0879,3.1089,3.1093,3.1097,0,0,0,0,0,0,3.081,3.0819,3.0887,3.0851,3.0859,3.0845,3.0868,3.0864,3.0876,3.0867,3.0864,3.0857,3.0862,3.0868,3.0927,3.0975,3.0879,3.0882,3.1085,3.109,3.1095,3.118,0,0,0,0,0,0,3.0807,3.0818,3.0851,3.0853,3.0861,3.0941,3.0871,3.0867,3.0883,3.0876,3.0881,3.0879,3.086,3.0922,3.0931,3.0979,3.0885,3.108,3.1087,3.1093,3.1173,3.1188,3.12,0,0,0,0,0,3.0804,3.0873,3.0853,3.0862,3.0901,3.0944,3.0949,3.0926,3.0887,3.092,3.0914,3.0879,3.0968,3.0929,3.0938,3.0988,3.1077,3.1085,3.1093,3.1167,3.1185,3.12,0,0,0,0,0,0,3.0876,3.0872,3.085,3.0922,3.0934,3.0933,3.0973,3.0945,3.0968,3.096,3.093,3.0932,3.0997,3.0998,3.0954,3.1072,3.1016,3.1026,3.1069,3.1086,3.11,3.1098,3.0888,0,0,0,0,0,3.0901,3.0936,3.0931,3.0995,3.1002,3.0987,3.1005,3.0986,3.0997,3.1002,3.1,3.1013,3.1044,3.1065,3.1093,3.1173,3.1174,3.1212,3.1225,3.1237,3.1246,3.1291,3.1308,3.1122,3.1122,3.1122,0,0,3.0951,3.0954,3.0978,3.101,3.1017,3.1055,3.0992,3.1034,3.1062,3.1008,3.1065,3.1065,3.1076,3.1147,3.1178,3.115,3.1298,3.1247,3.1256,3.1259,3.13,3.1318,3.1334,3.1128,3.1127,3.1126,0,0,3.1063,3.1068,3.1123,3.1132,3.1144,3.1134,3.1147,3.1151,3.1149,3.1206,3.1167,3.12,3.1254,3.1264,3.1277,3.1396,3.1365,3.1406,3.1477,3.1521,3.1536,3.1549,3.1593,3.1609,3.1415,3.1415,3.1415,0,3.1124,3.118,3.1155,3.1201,3.1217,3.1171,3.1227,3.1237,3.1257,3.127,3.1238,3.1306,3.1311,3.1385,3.1414,3.1425,3.144,3.1405,3.1536,3.1548,3.156,3.1602,3.1618,3.142,3.142,3.1419,3.1419,0,3.1256,3.1296,3.1338,3.1361,3.1382,3.1433,3.1415,3.144,3.142,3.1413,3.1473,3.1477,3.1506,3.1522,3.1502,3.1594,3.1576,3.1541,3.1484,3.1583,3.1622,3.1638,3.1428,3.1426,3.1424,3.1423,0,0,3.1413,3.1423,3.1439,3.145,3.1461,3.1491,3.1541,3.157,3.1592,3.1608,3.165,3.1698,3.1666,3.168,3.1661,3.17,3.1797,3.166,3.1659,3.1686,3.1901,3.1928,3.1947,3.1776,3.1779,3.1781,3.19,0,3.1525,3.161,3.159,3.1674,3.1712,3.167,3.1713,3.1725,3.1721,3.1752,3.1747,3.1782,3.1736,3.1745,3.1781,3.1777,3.184,3.1768,3.1816,3.1818,3.1815,3.1967,3.1996,3.2108,3.1915,3.1918,3.1919,0,3.1666,3.169,3.1779,3.1786,3.1801,3.1841,3.1867,3.1897,3.1911,3.1905,3.1923,3.1897,3.1947,3.189,3.1959,3.1911,3.1929,3.1931,3.1935,3.1939,3.1875,3.1977,3.2143,3.2161,3.1943,3.1941,3.1939,0,3.1775,3.1828,3.1889,3.1899,3.1909,3.1938,3.1943,3.1954,3.1974,3.1997,3.201,3.2038,3.2054,3.2077,3.2061,3.202,3.2134,3.2074,3.2131,3.2132,3.2157,3.2156,3.233,3.2167,3.2167,3.2167,3.2166,0,3.1902,3.1959,3.1938,3.1975,3.2038,3.2014,3.2077,3.2078,3.2088,3.2125,3.209,3.2126,3.2101,3.2136,3.2123,3.2184,3.219,3.2188,3.2184,3.2192,3.2193,3.2204,3.2197,3.2171,3.217,3.2169,3.2169,0,3.2034,3.2022,3.2086,3.209,3.2093,3.2139,3.2144,3.2179,3.2173,3.2221,3.2231,3.2221,3.226,3.2245,3.2286,3.2278,3.2356,3.2341,3.2352,3.2349,3.2407,3.2403,3.2596,3.2621,3.244,3.2442,3.2443,0,3.2116,3.2159,3.2169,3.2192,3.2201,3.2238,3.2258,3.2237,3.226,3.2281,3.2314,3.235,3.2377,3.2442,3.2438,3.247,3.2457,3.2522,3.2461,3.2469,3.246,3.2458,3.2463,3.2535,3.2537,3.2539,3.254,0,3.2265,3.2258,3.2289,3.232,3.2345,3.2368,3.2387,3.2408,3.2388,3.2416,3.2456,3.2478,3.252,3.2557,3.2586,3.2592,3.2564,3.2559,3.2575,3.2584,3.2589,3.2589,3.2387,3.2555,3.2554,3.2552,3.2552,3.2551,3.2376,3.2413,3.2427,3.2463,3.2476,3.2496,3.253,3.2529,3.2562,3.2596,3.2581,3.2628,3.2642,3.2678,3.2689,3.2725,3.27,3.2721,3.2727,3.2733,3.2742,3.2582,3.273,3.273,3.2729,3.2729,3.2729,0,3.2524,3.2532,3.2566,3.2595,3.2625,3.2596,3.2616,3.2643,3.2685,3.2701,3.2729,3.2776,3.2812,3.2813,3.2847,3.2876,3.2864,3.2886,3.2884,3.2887,3.2761,3.2746,3.2895,3.2895,3.2895,3.2895,3.2895,3.2895,3.2605,3.2667,3.2662,3.2731,3.2737,3.2784,3.2798,3.2817,3.283,3.2884,3.2914,3.2915,3.2925,3.296,3.2992,3.2991,3.3006,3.3034,3.3028,3.2911,3.2895,3.2879,3.2864,3.3037,3.3037,3.315,3.3151,3.3152]},{"header":{"parameterUnit":"m.s-1","parameterCategory":1,"la1":30.2991,"la2":30.254,"lo1":-89.0895,"lo2":-89.0444,"dy":0.0017,"dx":0.0017,"nx":28,"ny":28,"refTime":"2023-10-14T21:00:00:Z","depth":0,"parameterNumber":3,"parameterNumberName":"V-component_of_WINDS"},"data":[0,0,0,0,0,0,0,0,0,0,0,0,0,0,0,0,0,0,0,0,0,0,0,0,0,0,0,0,0,0,0,0,0,0,0,0,0,0,0,0,0,0,0,0,0,0,0,0,0,0,0,0,0,0,0,0,0,0,-4.0769,-4.0771,0,-4.09,-4.0901,-4.0903,-4.0889,-4.0887,-4.0885,-4.0883,-4.1013,-4.1018,-4.1024,0,0,0,0,0,0,0,0,0,0,0,0,0,-4.0507,-4.0511,-4.0769,-4.0771,-4.0772,-4.09,-4.0901,-4.0903,-4.0889,-4.0887,-4.0884,-4.0882,-4.1011,-4.1018,-4.1024,0,0,0,0,0,0,0,0,0,0,0,0,0,-4.0627,-4.0513,-4.0769,-4.0781,-4.0783,-4.0899,-4.0901,-4.0904,-4.089,-4.0887,-4.0884,-4.0881,-4.1009,-4.1017,-4.1025,-4.1136,0,0,-4.105,-4.1053,0,0,0,0,0,0,0,0,-4.062,-4.0637,-4.0778,-4.078,-4.0783,-4.0875,-4.0857,-4.0982,-4.0891,-4.0849,-4.0883,-4.0879,-4.0969,-4.0981,-4.1012,-4.1143,-4.1148,-4.1051,-4.1055,-4.1059,-4.1061,0,0,0,0,0,0,0,-4.0612,-4.0631,-4.0821,-4.078,-4.0783,-4.0779,-4.0793,-4.088,-4.0925,-4.0853,-4.0852,-4.0868,-4.097,-4.1004,-4.1015,-4.115,-4.105,-4.1057,-4.1062,-4.1066,-4.1381,-4.1384,0,0,0,0,0,0,-4.0601,-4.0624,-4.0817,-4.0825,-4.0693,-4.0787,-4.0802,-4.0849,-4.0924,-4.0933,-4.087,-4.0867,-4.0992,-4.1005,-4.1019,-4.1156,-4.1059,-4.1066,-4.1071,-4.1377,-4.1382,-4.1385,0,0,0,0,0,0,-4.0595,-4.0618,-4.0811,-4.0724,-4.0749,-4.0794,-4.0847,-4.0853,-4.0886,-4.0937,-4.0945,-4.0897,-4.099,-4.1008,-4.1108,-4.116,-4.107,-4.1077,-4.1373,-4.1379,-4.1383,-4.1429,0,0,0,0,0,0,-4.0588,-4.0616,-4.0659,-4.0726,-4.0753,-4.0899,-4.085,-4.0858,-4.0901,-4.0897,-4.0964,-4.0972,-4.0989,-4.1096,-4.1116,-4.117,-4.1084,-4.1369,-4.1376,-4.1382,-4.1423,-4.1436,-4.1446,0,0,0,0,0,-4.0579,-4.0666,-4.0662,-4.0685,-4.0808,-4.0902,-4.0918,-4.0936,-4.0905,-4.0949,-4.0982,-4.097,-4.1151,-4.1107,-4.1129,-4.1186,-4.1365,-4.1374,-4.1381,-4.1418,-4.1433,-4.1446,0,0,0,0,0,0,-4.0603,-4.0675,-4.0671,-4.0782,-4.0836,-4.0899,-4.0954,-4.0951,-4.1014,-4.1008,-4.1027,-4.1042,-4.1144,-4.1175,-4.1123,-4.1298,-4.1254,-4.1267,-4.1275,-4.1289,-4.13,-4.1291,-4.109,0,0,0,0,0,-4.0622,-4.0692,-4.0751,-4.0843,-4.0871,-4.0908,-4.0949,-4.096,-4.1016,-4.1038,-4.1078,-4.1133,-4.1202,-4.1247,-4.1314,-4.1428,-4.1443,-4.1478,-4.1489,-4.1498,-4.1509,-4.1573,-4.159,-4.1411,-4.1411,-4.1411,0,0,-4.066,-4.0708,-4.0751,-4.085,-4.0892,-4.0965,-4.0927,-4.1005,-4.1059,-4.1049,-4.1147,-4.1179,-4.1241,-4.1349,-4.1399,-4.1378,-4.1562,-4.1509,-4.1515,-4.1521,-4.1583,-4.16,-4.1615,-4.1417,-4.1416,-4.1415,0,0,-4.0768,-4.0811,-4.0894,-4.0938,-4.1005,-4.1029,-4.1049,-4.1114,-4.1135,-4.1234,-4.1229,-4.1293,-4.1411,-4.1457,-4.1495,-4.1622,-4.1614,-4.1643,-4.1702,-4.1765,-4.1779,-4.1792,-4.1838,-4.1854,-4.1654,-4.1654,-4.1654,0,-4.0807,-4.0917,-4.0936,-4.1016,-4.106,-4.1056,-4.1141,-4.1182,-4.1267,-4.1297,-4.1273,-4.1424,-4.1465,-4.1584,-4.1616,-4.1647,-4.167,-4.1636,-4.1775,-4.1788,-4.18,-4.1845,-4.1862,-4.1657,-4.1657,-4.1657,-4.1656,0,-4.0962,-4.1039,-4.1098,-4.1181,-4.1232,-4.1313,-4.1345,-4.1394,-4.14,-4.1427,-4.1528,-4.1578,-4.1656,-4.1685,-4.169,-4.1806,-4.1791,-4.1771,-4.1727,-4.182,-4.1863,-4.188,-4.1662,-4.1661,-4.166,-4.1659,0,0,-4.1087,-4.1183,-4.1204,-4.1243,-4.1317,-4.1376,-4.1458,-4.1535,-4.1577,-4.1636,-4.1705,-4.1807,-4.179,-4.1833,-4.1844,-4.1899,-4.1999,-4.1873,-4.1874,-4.1895,-4.213,-4.2145,-4.2165,-4.1994,-4.1997,-4.2,-4.2125,0,-4.1203,-4.1349,-4.137,-4.1499,-4.157,-4.1569,-4.164,-4.1693,-4.1722,-4.1786,-4.1816,-4.1889,-4.186,-4.1887,-4.1941,-4.1975,-4.2046,-4.1966,-4.2058,-4.2062,-4.2044,-4.2187,-4.2202,-4.2318,-4.2142,-4.2145,-4.2147,0,-4.1357,-4.1422,-4.1559,-4.1625,-4.1656,-4.172,-4.1793,-4.1855,-4.1916,-4.1932,-4.1983,-4.1987,-4.2072,-4.2025,-4.2142,-4.2088,-4.2127,-4.2149,-4.2154,-4.2164,-4.211,-4.22,-4.2356,-4.2373,-4.2173,-4.2171,-4.2169,0,-4.1436,-4.1558,-4.1656,-4.1689,-4.1768,-4.1813,-4.1848,-4.1906,-4.1952,-4.2016,-4.2046,-4.2119,-4.2159,-4.2215,-4.2239,-4.2202,-4.2356,-4.231,-4.2372,-4.2372,-4.2404,-4.2402,-4.2568,-4.2429,-4.2428,-4.2428,-4.2428,0,-4.1563,-4.1647,-4.1693,-4.1753,-4.1847,-4.187,-4.1962,-4.1996,-4.2048,-4.2114,-4.2117,-4.2179,-4.2208,-4.2275,-4.2294,-4.2389,-4.2407,-4.2423,-4.2427,-4.2423,-4.2421,-4.2449,-4.2441,-4.2433,-4.2432,-4.2431,-4.243,0,-4.1667,-4.1701,-4.1808,-4.1875,-4.1894,-4.1961,-4.2018,-4.2077,-4.2105,-4.219,-4.2211,-4.2255,-4.2334,-4.2364,-4.246,-4.2473,-4.2583,-4.258,-4.2563,-4.2564,-4.2625,-4.2619,-4.2816,-4.2843,-4.2685,-4.2686,-4.2687,0,-4.1746,-4.1811,-4.1886,-4.1932,-4.1969,-4.2042,-4.209,-4.2116,-4.2165,-4.224,-4.229,-4.2369,-4.2434,-4.256,-4.26,-4.2674,-4.2674,-4.2737,-4.2684,-4.2679,-4.2676,-4.2672,-4.2679,-4.2747,-4.2749,-4.275,-4.2751,0,-4.1883,-4.1897,-4.1966,-4.2042,-4.21,-4.216,-4.2219,-4.2256,-4.2291,-4.2346,-4.2428,-4.2478,-4.2578,-4.2656,-4.2733,-4.2768,-4.2766,-4.2768,-4.2786,-4.2782,-4.277,-4.2779,-4.2591,-4.2763,-4.2762,-4.2761,-4.276,-4.276,-4.1978,-4.2036,-4.2099,-4.2176,-4.2224,-4.2279,-4.2338,-4.2375,-4.2444,-4.2528,-4.2539,-4.2627,-4.2687,-4.279,-4.2829,-4.2898,-4.2881,-4.2907,-4.2914,-4.292,-4.2925,-4.2759,-4.2912,-4.2911,-4.2911,-4.2911,-4.2911,0,-4.2115,-4.2157,-4.2228,-4.2311,-4.2372,-4.2366,-4.2432,-4.2483,-4.2561,-4.2618,-4.2683,-4.2778,-4.2855,-4.2902,-4.2979,-4.3026,-4.3027,-4.3045,-4.3042,-4.3051,-4.2935,-4.2912,-4.3043,-4.3043,-4.3043,-4.3043,-4.3043,-4.3043,-4.2194,-4.2293,-4.2315,-4.2438,-4.2478,-4.2566,-4.2604,-4.2655,-4.2701,-4.2808,-4.2873,-4.2903,-4.2957,-4.3039,-4.3109,-4.3121,-4.315,-4.317,-4.3181,-4.3072,-4.3058,-4.3045,-4.3024,-4.3176,-4.3176,-4.329,-4.3291,-4.3292]}]]